Location: Complexul Astronomic Baia Mare
(47.6577°N, 23.5639°E)
Time: 13:28:19
(UTC+03:00)

ISS - Pass Details

Date: 01 June 2017
Orbit: 401 x 408 km, 51.6° (Epoch: 23 June)

Event Time Altitude Azimuth Distance (km) Brightness Sun altitude
Rises 22:21:00 0° 281° (W) 2,339 1.0 -9.0°
Reaches altitude 10° 22:23:11 10° 289° (WNW) 1,477 0.1 -9.3°
Maximum altitude 22:26:19 39° 0° (N) 630 -2.4 -9.6°
Drops below altitude 10° 22:29:27 10° 72° (ENE) 1,474 -1.2 -10.0°
Sets 22:31:38 0° 80° (E) 2,333 -0.3 -10.2°
Enters shadow 22:31:38 - 80° (E) 2,336 -0.3 -10.2°
